User: anonymous
Location: Plymouth
(43.7570°N, 71.6890°W)
Time: 01:30:31
(UTC-04:00)
Language:

Meteor 1-28 Rocket - Orbit

View from above orbital plane
View from above orbital plane
View from above satellite
View from above satellite

Ground track
Ground track

The orbit data is extracted from the following two-line orbital elements,

1 10114U 77057B   14259.76640204  .00002677  00000-0  15209-3 0  3405
2 10114 097.2589 115.8047 0014148 217.9393 142.0843 15.13646812 31415
Epoch (UTC): 16 September 2014 18:23:37
Eccentricity: 0.0014148
inclination: 97.2589°
perigee height: 515 km
apogee height: 535 km
right ascension of ascending node: 115.8047°
argument of perigee: 217.9393°
revolutions per day: 15.13646812
mean anomaly at epoch: 142.0843°
orbit number at epoch: 3141

The dashed part of the orbit path shows where the satellite is in the earth's shadow,  

DLR